Retour au catalogue

COSMOS 2251 DEB

ActifLEO
NORAD 33779·DEBRIS·🇷🇺 Russia

Lancé Jun 16, 1993 depuis Plesetsk Cosmodrome

Loading…

Prochains Passages (prochaines 24 heures)

TLE

FraisSource: Space-Track

Époque: Sep 14, 2026, 01:06 UTC

1 33779U 93036U   26257.04586618  .00005123  00000-0  74891-3 0  9993
2 33779  74.0456 354.0811 0016071 323.6572 211.3047 14.75876946925834

Suivez COSMOS 2251 DEB en temps réel avec AllMySat

Download on the App Store